Terminal Aerodrome Forecast
Issued by NWS

Home | Current Version | Previous Version | Text Only | Print | Product List | Glossary On
Versions: 1 2 3 4 5 6 7 8 9 10 11 12 13 14 15
000
FTUS46 KHNX 282320
TAFVIS
TAF
KVIS 282320Z 0100/0124 VRB04KT P6SM VCSH SCT025 BKN040
     FM010400 VRB03KT P6SM BKN040
     FM011200 VRB03KT P6SM BKN100=

USA.gov is the U.S. government's official web portal to all federal, state and local government web resources and services.